Cody, WY

11:21 PM MST on February 18, 2018 (GMT -0700)
Yellowstone Regional

Weather History for KCOD - November, 2014

Change the Weather History Date:

Friday, November 7, 2014

  Actual Average Record
Temperature  
Mean Temperature 47 °F -  
Max Temperature 59 °F 49 °F 74 °F (1934)
Min Temperature 35 °F 27 °F 0 °F (2017)
Degree Days  
Heating Degree Days 18    
Moisture  
Dew Point 30 °F    
Average Humidity 48    
Maximum Humidity 71    
Minimum Humidity 31    
Precipitation  
Precipitation 0.00 in - - ()
Sea Level Pressure  
Sea Level Pressure 30.17 in    
Wind  
Wind Speed 11 mph (NNW)    
Max Wind Speed 21 mph    
Max Gust Speed 36 mph    
Visibility 10 miles    
Events      
Averages and records for this station are not official NWS values.
T = Trace of Precipitation, MM = Missing Value Source: NWS Daily Summary

Daily Weather History Graph

Daily Weather History Graph

Search for Another Location

Airport or City:

Trip Planner

Search our weather history database for the weather conditions in past years. The results will help you decide how hot, cold, wet, or windy it might be!

Date:

Astronomy

Nov. 07, 2014 Rise Set
Actual Time 7:01 AM MST 4:57 PM MST
Civil Twilight 6:30 AM MST 5:27 PM MST
Nautical Twilight 5:56 AM MST 6:02 PM MST
Astronomical Twilight 5:22 AM MST 6:36 PM MST
Moon 5:51 PM MST (11/7) 7:41 AM MST (11/7)
Length of Visible Light 10h 57m
Length of Day
9h 55m
Full, 99% of the Moon is Illuminated
Nov 7
Full
Nov 14
Last Quarter
Nov 22
New
Nov 29
First Quarter
Dec 6
Full

Hourly Weather History & Observations

Time (MST) Temp. Windchill Dew Point Humidity Pressure Visibility Wind Dir Wind Speed Gust Speed Precip Events Conditions
12:15 AM 59.0 °F - 28.4 °F 31% 29.98 in 10.0 mi West 16.1 mph 31.1 mph N/A   Clear
12:35 AM 59.0 °F - 28.4 °F 31% 29.96 in 10.0 mi WSW 15.0 mph 28.8 mph N/A   Clear
12:55 AM 59.0 °F - 28.4 °F 31% 29.97 in 10.0 mi SW 20.7 mph 35.7 mph N/A   Clear
1:15 AM 57.2 °F - 28.4 °F 33% 29.97 in 10.0 mi SW 12.7 mph 23.0 mph N/A   Clear
1:35 AM 59.0 °F - 28.4 °F 31% 29.97 in 10.0 mi West 12.7 mph 29.9 mph N/A   Clear
1:55 AM 59.0 °F - 28.4 °F 31% 29.97 in 10.0 mi West 17.3 mph 24.2 mph N/A   Partly Cloudy
2:15 AM 59.0 °F - 28.4 °F 31% 29.98 in 10.0 mi WNW 11.5 mph - N/A   Partly Cloudy
2:35 AM 57.2 °F - 28.4 °F 33% 29.97 in 10.0 mi Calm Calm - N/A   Clear
2:55 AM 57.2 °F - 30.2 °F 36% 29.97 in 10.0 mi ENE 8.1 mph - N/A   Clear
3:15 AM 57.2 °F - 30.2 °F 36% 29.96 in 10.0 mi ESE 3.5 mph - N/A   Partly Cloudy
3:35 AM 57.2 °F - 32.0 °F 38% 29.96 in 10.0 mi SE 5.8 mph - N/A   Partly Cloudy
3:55 AM 57.2 °F - 32.0 °F 38% 29.96 in 10.0 mi ENE 8.1 mph - N/A   Clear
4:15 AM 59.0 °F - 32.0 °F 36% 29.97 in 10.0 mi NE 8.1 mph 18.4 mph N/A   Scattered Clouds
4:35 AM 57.2 °F - 30.2 °F 36% 29.98 in 10.0 mi Calm Calm - N/A   Mostly Cloudy
4:55 AM 59.0 °F - 28.4 °F 31% 30.00 in 10.0 mi NW 13.8 mph 19.6 mph N/A   Overcast
5:15 AM 55.4 °F - 30.2 °F 38% 30.00 in 10.0 mi West 6.9 mph - N/A   Overcast
5:35 AM 55.4 °F - 28.4 °F 36% 29.99 in 10.0 mi West 6.9 mph - N/A   Mostly Cloudy
5:55 AM 55.4 °F - 30.2 °F 38% 30.01 in 10.0 mi West 9.2 mph 19.6 mph N/A   Clear
6:15 AM 55.4 °F - 32.0 °F 41% 30.01 in 10.0 mi West 15.0 mph 26.5 mph N/A   Clear
6:35 AM 55.4 °F - 32.0 °F 41% 30.03 in 10.0 mi West 13.8 mph 26.5 mph N/A   Mostly Cloudy
6:55 AM 55.4 °F - 32.0 °F 41% 30.05 in 10.0 mi WNW 17.3 mph 28.8 mph N/A   Overcast
7:15 AM 53.6 °F - 35.6 °F 51% 30.07 in 10.0 mi ENE 8.1 mph - N/A   Overcast
7:35 AM 48.2 °F - 37.4 °F 66% 30.08 in 10.0 mi NNE 18.4 mph 26.5 mph N/A   Mostly Cloudy
7:55 AM 48.2 °F - 39.2 °F 71% 30.09 in 10.0 mi NE 11.5 mph - N/A   Overcast
8:15 AM 48.2 °F - 37.4 °F 66% 30.11 in 10.0 mi NNE 9.2 mph - N/A   Overcast
8:35 AM 48.2 °F - 39.2 °F 71% 30.13 in 10.0 mi North 4.6 mph - N/A   Overcast
8:55 AM 48.2 °F - 39.2 °F 71% 30.15 in 10.0 mi North 11.5 mph - N/A   Overcast
9:15 AM 48.2 °F - 39.2 °F 71% 30.15 in 10.0 mi NNE 17.3 mph 21.9 mph N/A   Overcast
9:35 AM 48.2 °F - 39.2 °F 71% 30.16 in 10.0 mi NNE 12.7 mph - N/A   Overcast
9:55 AM 48.2 °F - 39.2 °F 71% 30.17 in 10.0 mi NE 5.8 mph - N/A   Overcast
10:15 AM 50.0 °F - 37.4 °F 62% 30.18 in 10.0 mi NNE 8.1 mph - N/A   Overcast
10:35 AM 50.0 °F - 37.4 °F 62% 30.18 in 10.0 mi NNE 13.8 mph 19.6 mph N/A   Overcast
10:55 AM 50.0 °F - 37.4 °F 62% 30.18 in 10.0 mi NNE 12.7 mph - N/A   Mostly Cloudy
11:15 AM 53.6 °F - 39.2 °F 58% 30.18 in 10.0 mi NNE 12.7 mph - N/A   Scattered Clouds
11:35 AM 53.6 °F - 35.6 °F 51% 30.19 in 10.0 mi North 10.4 mph - N/A   Mostly Cloudy
11:55 AM 55.4 °F - 35.6 °F 47% 30.18 in 10.0 mi NE 13.8 mph - N/A   Mostly Cloudy
12:15 PM 53.6 °F - 35.6 °F 51% 30.18 in 10.0 mi North 8.1 mph - N/A   Mostly Cloudy
12:35 PM 53.6 °F - 33.8 °F 47% 30.18 in 10.0 mi NNE 6.9 mph - N/A   Mostly Cloudy
12:55 PM 55.4 °F - 35.6 °F 47% 30.18 in 10.0 mi North 8.1 mph - N/A   Mostly Cloudy
1:15 PM 55.4 °F - 33.8 °F 44% 30.18 in 10.0 mi NNE 18.4 mph 21.9 mph N/A   Overcast
1:35 PM 53.6 °F - 30.2 °F 41% 30.18 in 10.0 mi NNE 17.3 mph 23.0 mph N/A   Overcast
1:55 PM 53.6 °F - 26.6 °F 35% 30.19 in 10.0 mi NNE 17.3 mph 26.5 mph N/A   Overcast
2:15 PM 53.6 °F - 28.4 °F 38% 30.20 in 10.0 mi NNE 18.4 mph 23.0 mph N/A   Overcast
2:35 PM 51.8 °F - 26.6 °F 38% 30.22 in 10.0 mi North 19.6 mph 25.3 mph N/A   Overcast
2:55 PM 51.8 °F - 26.6 °F 38% 30.23 in 10.0 mi NNE 16.1 mph 27.6 mph N/A   Overcast
3:15 PM 51.8 °F - 26.6 °F 38% 30.24 in 10.0 mi North 16.1 mph 26.5 mph N/A   Mostly Cloudy
3:35 PM 50.0 °F - 26.6 °F 40% 30.25 in 10.0 mi NNE 12.7 mph 20.7 mph N/A   Mostly Cloudy
3:55 PM 48.2 °F - 26.6 °F 43% 30.25 in 10.0 mi NNE 13.8 mph - N/A   Partly Cloudy
4:15 PM 48.2 °F - 26.6 °F 43% 30.26 in 10.0 mi NNE 9.2 mph - N/A   Clear
4:35 PM 48.2 °F - 26.6 °F 43% 30.28 in 10.0 mi NNE 11.5 mph 16.1 mph N/A   Mostly Cloudy
4:55 PM 48.2 °F - 26.6 °F 43% 30.29 in 10.0 mi North 11.5 mph 18.4 mph N/A   Overcast
5:15 PM 46.4 °F 42.4 °F 26.6 °F 46% 30.30 in 10.0 mi North 8.1 mph - N/A   Scattered Clouds
5:35 PM 46.4 °F 45.2 °F 24.8 °F 43% 30.32 in 10.0 mi NW 3.5 mph - N/A   Clear
5:55 PM 46.4 °F 45.2 °F 24.8 °F 43% 30.33 in 10.0 mi NW 3.5 mph - N/A   Clear
6:15 PM 44.6 °F 42.2 °F 23.0 °F 43% 30.33 in 10.0 mi NW 4.6 mph - N/A   Clear
6:35 PM 44.6 °F 41.4 °F 23.0 °F 43% 30.34 in 10.0 mi NW 5.8 mph - N/A   Clear
6:55 PM 42.8 °F - 23.0 °F 46% 30.34 in 10.0 mi Calm Calm - N/A   Clear
7:15 PM 42.8 °F 41.1 °F 23.0 °F 46% 30.34 in 10.0 mi NW 3.5 mph - N/A   Clear
7:35 PM 39.2 °F 37.0 °F 21.2 °F 49% 30.34 in 10.0 mi South 3.5 mph - N/A   Clear
7:55 PM 35.6 °F 32.8 °F 21.2 °F 56% 30.35 in 10.0 mi South 3.5 mph - N/A   Clear
8:15 PM 37.4 °F - 23.0 °F 56% 30.35 in 10.0 mi Calm Calm - N/A   Clear
8:35 PM 35.6 °F 31.7 °F 24.8 °F 65% 30.35 in 10.0 mi SW 4.6 mph - N/A   Clear
8:55 PM 35.6 °F 32.8 °F 24.8 °F 65% 30.35 in 10.0 mi South 3.5 mph - N/A   Clear
9:15 PM 35.6 °F 30.7 °F 23.0 °F 60% 30.34 in 10.0 mi South 5.8 mph - N/A   Clear
9:35 PM 37.4 °F 32.8 °F 24.8 °F 60% 30.34 in 10.0 mi South 5.8 mph - N/A   Clear
9:55 PM 39.2 °F 37.0 °F 24.8 °F 56% 30.34 in 10.0 mi West 3.5 mph - N/A   Clear
10:15 PM 39.2 °F 37.0 °F 24.8 °F 56% 30.34 in 10.0 mi WSW 3.5 mph - N/A   Clear
10:35 PM 39.2 °F 35.0 °F 23.0 °F 52% 30.33 in 10.0 mi SW 5.8 mph - N/A   Clear
10:55 PM 37.4 °F 32.8 °F 24.8 °F 60% 30.32 in 10.0 mi SW 5.8 mph - N/A   Clear
11:15 PM 37.4 °F 30.3 °F 26.6 °F 65% 30.32 in 10.0 mi South 10.4 mph - N/A   Clear
11:35 PM 37.4 °F 30.8 °F 26.6 °F 65% 30.31 in 10.0 mi SSW 9.2 mph - N/A   Clear
11:55 PM 35.6 °F 28.0 °F 26.6 °F 70% 30.31 in 10.0 mi South 10.4 mph - N/A   Clear